TimeCDT,TemperatureF,Dew PointF,Humidity,Sea Level PressureIn,VisibilityMPH,Wind Direction,Wind SpeedMPH,Gust SpeedMPH,PrecipitationIn,Events,Conditions,WindDirDegrees,DateUTC
12:54 AM,43.0,39.0,86,30.09,10.0,ESE,4.6,-,N/A,,Clear,110,2013-09-23 05:54:00
1:54 AM,42.1,39.0,89,30.09,10.0,ESE,5.8,-,N/A,,Clear,120,2013-09-23 06:54:00
2:54 AM,41.0,39.0,93,30.10,10.0,ESE,4.6,-,N/A,,Clear,120,2013-09-23 07:54:00
3:54 AM,39.9,37.9,93,30.11,10.0,East,5.8,-,N/A,,Clear,100,2013-09-23 08:54:00
4:54 AM,39.9,37.9,93,30.11,10.0,ESE,3.5,-,N/A,,Clear,110,2013-09-23 09:54:00
5:54 AM,39.0,37.0,93,30.11,10.0,ESE,4.6,-,N/A,,Clear,110,2013-09-23 10:54:00
6:54 AM,39.0,37.0,93,30.13,10.0,ESE,4.6,-,N/A,,Clear,110,2013-09-23 11:54:00
7:54 AM,42.1,39.9,92,30.14,10.0,ESE,4.6,-,N/A,,Clear,120,2013-09-23 12:54:00
8:54 AM,48.9,43.0,80,30.14,10.0,SSE,5.8,-,N/A,,Clear,150,2013-09-23 13:54:00
9:54 AM,54.0,45.0,72,30.15,10.0,SSE,10.4,-,N/A,,Clear,150,2013-09-23 14:54:00
10:54 AM,57.0,46.0,67,30.14,10.0,South,10.4,-,N/A,,Clear,170,2013-09-23 15:54:00
11:54 AM,60.1,46.9,62,30.13,10.0,SSE,9.2,-,N/A,,Clear,160,2013-09-23 16:54:00
12:54 PM,62.1,48.0,60,30.11,10.0,SSE,9.2,-,N/A,,Clear,150,2013-09-23 17:54:00
1:54 PM,64.0,48.0,56,30.08,10.0,SSE,6.9,-,N/A,,Clear,160,2013-09-23 18:54:00
2:54 PM,64.9,48.0,54,30.07,10.0,SSE,11.5,-,N/A,,Clear,150,2013-09-23 19:54:00
3:54 PM,66.0,48.9,54,30.06,10.0,SE,9.2,-,N/A,,Clear,130,2013-09-23 20:54:00
4:54 PM,64.9,48.9,56,30.06,10.0,ESE,10.4,-,N/A,,Clear,120,2013-09-23 21:54:00
5:54 PM,63.0,46.9,56,30.06,10.0,SE,8.1,-,N/A,,Clear,140,2013-09-23 22:54:00
6:54 PM,59.0,46.9,64,30.06,10.0,SE,9.2,-,N/A,,Clear,130,2013-09-23 23:54:00
7:54 PM,55.0,46.9,74,30.07,10.0,ESE,6.9,-,N/A,,Clear,110,2013-09-24 00:54:00
8:54 PM,52.0,46.9,83,30.07,10.0,East,8.1,-,N/A,,Clear,100,2013-09-24 01:54:00
9:54 PM,51.1,46.9,86,30.08,10.0,ESE,5.8,-,N/A,,Clear,120,2013-09-24 02:54:00
10:54 PM,50.0,46.0,86,30.08,10.0,SE,5.8,-,N/A,,Clear,140,2013-09-24 03:54:00
11:54 PM,46.9,45.0,93,30.08,9.0,East,3.5,-,N/A,,Clear,100,2013-09-24 04:54:00